Regional Weather Roundup
Issued by NWS

Home | Current Version | Previous Version | Text Only | Print | Product List | Glossary Off
Versions: 1 2 3 4 5 6 7 8 9 10 11 12 13 14 15 16 17 18 19 20 21 22 23 24 25 26 27 28 29 30 31 32 33 34 35 36 37 38 39 40 41 42 43 44 45 46 47 48 49 50

380
ASUS43 KBIS 230231
RWRND
NORTH DAKOTA REGIONAL WEATHER ROUNDUP
NATIONAL WEATHER SERVICE EASTERN NORTH DAKOTA/GRAND FORKS ND
900 PM CDT MON MAY 22 2017

  NOTE: "FAIR" INDICATES FEW OR NO CLOUDS BELOW 12,000 FEET WITH NO
  SIGNIFICANT WEATHER AND/OR OBSTRUCTIONS TO VISIBILITY.

NDZ001>003-009>011-017-230300-
...NORTHWEST NORTH DAKOTA...

CITY           SKY/WX    TMP DP  RH WIND       PRES   REMARKS
WILLISTON      CLOUDY    65  33  30 N15       30.08R
MINOT          CLOUDY    57  37  47 N18       30.05R
MINOT AFB      CLOUDY    57  36  44 NE17      30.05R
$$

NDZ018>021-031>035-040>046-230300-
...SOUTHWEST NORTH DAKOTA...

CITY           SKY/WX    TMP DP  RH WIND       PRES   REMARKS
BISMARCK       CLOUDY    60  38  43 NW10      29.99R
DICKINSON      CLOUDY    57  33  40 NW9       30.05R
GARRISON         N/A     58  31  35 NE15G24   30.02R
HETTINGER      CLOUDY    57  34  41 N13       30.07R
$$

NDZ004>008-012>016-024-026-027-054-230300-
...NORTHEAST NORTH DAKOTA...

CITY           SKY/WX    TMP DP  RH WIND       PRES   REMARKS
GRAND FORKS    CLOUDY    52  47  83 N13       29.90R
GRAND FORKS AF CLOUDY    50  46  87 N17G25    29.91S
DEVILS LAKE    CLOUDY    50  42  74 N21       29.98R
$$

NDZ022-023-025-028>030-036>039-047>053-230300-
...SOUTHEAST NORTH DAKOTA...

CITY           SKY/WX    TMP DP  RH WIND       PRES   REMARKS
JAMESTOWN      LGT RAIN  49  44  83 N17       29.95R
FARGO          CLOUDY    49  46  90 NW9       29.88S
WAHPETON       CLOUDY    48  43  81 N5        29.89S
$$




USA.gov is the U.S. government's official web portal to all federal, state and local government web resources and services.